Terminal Aerodrome Forecast
Issued by NWS

Current Version | Previous Version | Graphics & Text | Print | Product List | Glossary On
Versions: 1 2 3 4 5 6 7 8 9 10 11 12 13 14 15 16 17 18 19 20 21
551
FTUS41 KPBZ 170520
TAFHLG
TAF
KHLG 170520Z 1706/1806 26010G20KT P6SM BKN025
      TEMPO 1706/1710 4SM -SHSN
     FM171400 26013G26KT P6SM VCSH BKN025
     FM171900 28012KT P6SM BKN035
     FM172300 26006KT P6SM SCT040=

USA.gov is the U.S. government's official web portal to all federal, state and local government web resources and services.